| time (UTC) | temp F | wind direction | speed knots | gust knots | rain 1hr in | rain 24hr in | rain mn in | humidity % | barometer mb |
| 20260507063041 | 55 | 221 | 0.0 | 0.0 | 0.00 | 0.00 | 0.00 | 90 | 1015.8 |
| 20260507061539 | 56 | 221 | 0.0 | 0.0 | 0.00 | 0.00 | 0.00 | 89 | 1015.9 |
| 20260507060040 | 56 | 221 | 0.0 | 0.0 | 0.00 | 0.00 | 0.00 | 88 | 1016.0 |
| 20260507053042 | 57 | 221 | 0.0 | 0.0 | 0.00 | 0.00 | 0.00 | 85 | 1015.8 |
| 20260507051536 | 57 | 221 | 0.0 | 0.0 | 0.00 | 0.00 | 0.00 | 84 | 1015.9 |
| 20260507044550 | 57 | 221 | 0.0 | 0.0 | 0.00 | 0.00 | 0.00 | 83 | 1015.7 |
| 20260507043048 | 58 | 221 | 0.0 | 0.0 | 0.00 | 0.00 | 0.00 | 83 | 1015.7 |
| 20260507040024 | 58 | 221 | 0.0 | 0.0 | 0.00 | 0.00 | 0.00 | 82 | 1015.6 |
| 20260507034524 | 58 | 221 | 0.0 | 0.0 | 0.00 | 0.00 | 0.00 | 81 | 1015.4 |
| 20260507033024 | 59 | 221 | 0.0 | 0.0 | 0.00 | 0.00 | 0.00 | 80 | 1015.5 |
| 20260507030024 | 60 | 221 | 0.0 | 0.0 | 0.00 | 0.00 | 0.00 | 76 | 1015.0 |
| 20260507024525 | 61 | 221 | 0.0 | 0.0 | 0.00 | 0.00 | 0.00 | 74 | 1014.9 |
| 20260507023022 | 62 | 221 | 0.0 | 0.0 | 0.00 | 0.00 | 0.00 | 71 | 1014.8 |
| 20260507020021 | 64 | 221 | 0.0 | 0.0 | 0.00 | 0.00 | 0.00 | 68 | 1014.7 |
| 20260507014518 | 64 | 221 | 0.0 | 0.0 | 0.00 | 0.00 | 0.00 | 67 | 1014.6 |
| 20260507013021 | 65 | 221 | 0.0 | 0.0 | 0.00 | 0.00 | 0.00 | 64 | 1014.6 |
| 20260507010014 | 67 | 215 | 0.0 | 0.0 | 0.00 | 0.00 | 0.00 | 59 | 1014.6 |
| 20260507004517 | 67 | 218 | 0.0 | 0.0 | 0.00 | 0.00 | 0.00 | 59 | 1014.6 |
| 20260507003026 | 68 | 213 | 0.0 | 0.0 | 0.00 | 0.00 | 0.00 | 57 | 1014.7 |
| 20260507001530 | 69 | 216 | 0.0 | 0.0 | 0.00 | 0.00 | 0.00 | 57 | 1014.7 |
| 20260507000025 | 69 | 209 | 0.0 | 0.0 | 0.00 | 0.00 | 0.00 | 56 | 1014.7 |
| 20260506234530 | 71 | 211 | 0.0 | 0.0 | 0.00 | 0.00 | 0.00 | 57 | 1014.6 |
| 20260506233045 | 71 | 242 | 0.0 | 0.0 | 0.00 | 0.00 | 0.00 | 57 | 1014.6 |
| 20260506231545 | 71 | 257 | 0.0 | 0.0 | 0.00 | 0.00 | 0.00 | 58 | 1014.7 |
| 20260506230047 | 70 | 234 | 0.0 | 0.0 | 0.00 | 0.00 | 0.00 | 57 | 1014.9 |
| 20260506223045 | 72 | 215 | 0.0 | 0.0 | 0.00 | 0.00 | 0.00 | 55 | 1015.0 |
| 20260506221544 | 71 | 202 | 1.7 | 0.0 | 0.00 | 0.00 | 0.00 | 55 | 1015.2 |
| 20260506220056 | 72 | 234 | 0.9 | 0.0 | 0.00 | 0.00 | 0.00 | 53 | 1015.5 |
| 20260506213034 | 72 | 206 | 1.7 | 0.0 | 0.00 | 0.00 | 0.00 | 54 | 1015.9 |
| 20260506211536 | 71 | 220 | 1.7 | 0.0 | 0.00 | 0.00 | 0.00 | 55 | 1016.0 |
| 20260506204539 | 72 | 226 | 1.7 | 0.0 | 0.00 | 0.00 | 0.00 | 56 | 1016.0 |
| 20260506203111 | 71 | 204 | 2.6 | 0.0 | 0.00 | 0.00 | 0.00 | 57 | 1016.1 |
| 20260506201523 | 72 | 218 | 1.7 | 0.0 | 0.00 | 0.00 | 0.00 | 58 | 1016.3 |
| 20260506200025 | 71 | 206 | 2.6 | 0.0 | 0.00 | 0.00 | 0.00 | 58 | 1016.5 |
| 20260506194521 | 71 | 220 | 1.7 | 0.0 | 0.00 | 0.00 | 0.00 | 57 | 1016.5 |
| 20260506191552 | 71 | 244 | 1.7 | 0.0 | 0.00 | 0.00 | 0.00 | 54 | 1016.6 |
| 20260506190050 | 71 | 242 | 0.9 | 0.0 | 0.00 | 0.00 | 0.00 | 53 | 1016.7 |
| 20260506184553 | 69 | 0.0 | 0.0 | 0.00 | 0.00 | 0.00 | 56 | 1016.9 | |
| 20260506181508 | 69 | 244 | 1.7 | 0.0 | 0.00 | 0.00 | 0.00 | 55 | 1017.0 |
| 20260506180007 | 69 | 247 | 1.7 | 0.0 | 0.00 | 0.00 | 0.00 | 58 | 1017.0 |
| 20260506174611 | 67 | 245 | 0.9 | 0.0 | 0.00 | 0.00 | 0.00 | 59 | 1017.0 |
| 20260506173101 | 66 | 249 | 0.9 | 0.0 | 0.00 | 0.00 | 0.00 | 59 | 1017.0 |
| 20260506171606 | 66 | 253 | 0.0 | 0.0 | 0.00 | 0.00 | 0.00 | 60 | 1017.1 |
| 20260506170055 | 64 | 256 | 0.9 | 0.0 | 0.00 | 0.00 | 0.00 | 64 | 1017.0 |
| 20260506164559 | 64 | 256 | 0.9 | 0.0 | 0.00 | 0.00 | 0.00 | 64 | 1017.1 |
| 20260506163114 | 64 | 266 | 0.0 | 0.0 | 0.00 | 0.00 | 0.00 | 64 | 1017.0 |
| 20260506161552 | 63 | 269 | 0.0 | 0.0 | 0.00 | 0.00 | 0.00 | 66 | 1017.0 |
| 20260506160051 | 61 | 271 | 0.0 | 0.0 | 0.00 | 0.00 | 0.00 | 67 | 1017.0 |
| 20260506154556 | 61 | 271 | 0.0 | 0.0 | 0.00 | 0.00 | 0.00 | 67 | 1017.0 |
| 20260506153109 | 60 | 271 | 0.0 | 0.0 | 0.00 | 0.00 | 0.00 | 70 | 1017.0 |
| 20260506151553 | 60 | 271 | 0.0 | 0.0 | 0.00 | 0.00 | 0.00 | 71 | 1017.0 |
| 20260506150051 | 58 | 271 | 0.0 | 0.0 | 0.00 | 0.00 | 0.00 | 76 | 1017.0 |
| 20260506144512 | 58 | 271 | 0.0 | 0.0 | 0.00 | 0.00 | 0.00 | 76 | 1017.0 |
| 20260506143011 | 56 | 271 | 0.0 | 0.0 | 0.00 | 0.00 | 0.00 | 79 | 1016.8 |
| 20260506141505 | 55 | 271 | 0.0 | 0.0 | 0.00 | 0.00 | 0.00 | 82 | 1016.7 |
| 20260506140008 | 54 | 271 | 0.0 | 0.0 | 0.00 | 0.00 | 0.00 | 84 | 1016.7 |
| 20260506134514 | 52 | 271 | 0.0 | 0.0 | 0.00 | 0.00 | 0.00 | 88 | 1016.7 |
| 20260506133013 | 50 | 271 | 0.0 | 0.0 | 0.00 | 0.00 | 0.00 | 90 | 1016.6 |
| 20260506131518 | 49 | 271 | 0.0 | 0.0 | 0.00 | 0.00 | 0.00 | 90 | 1016.6 |
| 20260506130012 | 49 | 271 | 0.0 | 0.0 | 0.00 | 0.00 | 0.00 | 89 | 1016.4 |
| 20260506124529 | 49 | 271 | 0.0 | 0.0 | 0.00 | 0.00 | 0.00 | 89 | 1016.3 |
| 20260506123029 | 49 | 271 | 0.0 | 0.0 | 0.00 | 0.00 | 0.00 | 89 | 1016.1 |
| 20260506121651 | 50 | 277 | 0.0 | 0.0 | 0.00 | 0.00 | 0.00 | 88 | 1016.0 |
| 20260506120037 | 50 | 277 | 0.0 | 0.0 | 0.00 | 0.00 | 0.00 | 88 | 1016.0 |
| 20260506114534 | 50 | 277 | 0.0 | 0.0 | 0.00 | 0.00 | 0.00 | 88 | 1015.9 |
| 20260506113034 | 50 | 277 | 0.0 | 0.0 | 0.00 | 0.00 | 0.00 | 89 | 1015.9 |
| 20260506110020 | 50 | 277 | 0.0 | 0.0 | 0.00 | 0.00 | 0.00 | 88 | 1015.7 |
| 20260506104518 | 50 | 277 | 0.0 | 0.0 | 0.00 | 0.00 | 0.00 | 88 | 1015.8 |
| 20260506103018 | 50 | 277 | 0.0 | 0.0 | 0.00 | 0.00 | 0.00 | 88 | 1015.8 |
| 20260506100028 | 50 | 277 | 0.0 | 0.0 | 0.00 | 0.00 | 0.00 | 89 | 1015.9 |
| 20260506094526 | 50 | 277 | 0.0 | 0.0 | 0.00 | 0.00 | 0.00 | 89 | 1016.0 |
| 20260506093023 | 51 | 277 | 0.0 | 0.0 | 0.00 | 0.00 | 0.00 | 89 | 1016.1 |
| 20260506090028 | 51 | 277 | 0.0 | 0.0 | 0.00 | 0.00 | 0.00 | 88 | 1016.2 |
| 20260506084535 | 51 | 277 | 0.0 | 0.0 | 0.00 | 0.00 | 0.00 | 88 | 1016.2 |
| 20260506083031 | 51 | 277 | 0.0 | 0.0 | 0.00 | 0.00 | 0.00 | 89 | 1016.3 |
| 20260506073014 | 52 | 277 | 0.0 | 0.0 | 0.00 | 0.00 | 0.00 | 88 | 1016.3 |